Location: Margate Sand
(51.4417°N, 1.3333°E)
Time: 02:37:52
(UTC+00:00)

Daily predictions for brighter satellites

Satellite Brightness Start Highest point End
(mag) Time Altitude Azimuth Time Altitude Azimuth Time Altitude Azimuth
Cosmos 2263 Rocket 4.4 03:01:27 20° E 03:01:27 20° E 03:04:28 10° NE
ATLAS 3B R/B 3.4 03:30:34 48° NE 03:30:34 48° NE 03:37:00 10° ESE
ALOS 4.0 03:49:03 10° NNE 03:53:12 30° E 03:53:16 30° E
Cosmos 2227 Rocket 4.1 03:57:13 19° N 03:57:13 19° N 03:58:59 10° NNE
Cosmos 2344 4.4 03:53:01 44° NNW 03:56:21 67° NE 04:08:22 10° ESE
NOSS 3-2 (C) 4.4 04:00:07 51° S 04:00:07 51° S 04:06:37 10° SSE
CENTAUR R/B 3.3 04:01:35 56° SSW 04:01:35 56° SSW 04:08:54 10° SSE
NOSS 3-4 (A) 4.3 04:00:49 39° SSE 04:02:00 44° ESE 04:07:56 10° NE
NOSS 3-4 (C) 4.3 04:00:55 39° SSE 04:02:08 43° ESE 04:08:04 10° NE
SL-4 R/B 4.1 04:15:02 24° E 04:15:02 24° E 04:16:36 10° E
Cosmos 1680 Rocket 3.9 04:20:02 59° NE 04:20:23 61° ENE 04:25:39 10° SE
ATLAS 2AS CENTAUR R/B 3.6 04:15:31 17° SSW 04:21:37 54° ESE 04:29:12 10° NE
Cosmos 2297 Rocket 4.0 04:30:31 18° N 04:30:31 18° N 04:32:40 10° NNE
ATLAS 5 CENTAUR R/B 3.5 04:31:19 27° NE 04:31:19 27° NE 04:32:29 10° NE
ATLAS CENTAUR R/B 2.7 04:32:06 34° E 04:32:06 34° E 04:34:37 10° ESE
ADEOS 4.0 04:28:01 10° NNE 04:33:13 60° ESE 04:38:23 10° S
Lacrosse 5 2.9 04:32:03 36° S 04:33:13 41° SE 04:37:58 10° ENE
Cosmos 2112 Rocket 4.1 04:38:53 51° N 04:40:12 74° ENE 04:45:32 10° SSE
Gbstr 26 Del rocket 4.2 04:43:33 30° SE 04:43:33 30° SE 04:45:47 10° SE
Cosmos 1745 Rocket 4.4 04:44:18 46° NW 04:44:18 46° NW 04:49:14 10° N
Cosmos 2263 Rocket 2.0 04:43:11 73° W 04:43:33 76° WNW 04:49:17 10° NNE
SJ 16-02 1.5 04:45:52 71° SE 04:46:04 72° ESE 04:50:31 10° NNE
Meteor 1-26 Rocket 4.1 04:48:59 32° NNW 04:51:45 78° W 04:57:22 10° S
Cosmos 1766 Rocket 3.7 04:58:04 61° NNW 04:58:04 61° NNW 05:01:50 10° N
FENGYUN 3A 3.5 04:52:42 10° NNE 04:58:09 79° WNW 05:03:32 10° SSW
Cosmos 2082 Rocket 4.3 04:57:54 11° NNW 05:01:49 20° NNE 05:06:00 10° E
Cosmos 2181 Rocket 3.8 04:56:42 10° NNW 05:02:54 68° W 05:08:59 10° S
Cosmos 1408 Rocket 3.8 04:58:54 10° S 05:03:20 72° E 05:07:48 10° NNE
USA 307 3.0 05:05:08 60° NNW 05:05:20 61° N 05:09:38 10° E
Okean 3 Rocket 4.3 05:07:16 37° NNW 05:07:16 37° NNW 05:10:07 10° N
COSMO-SKYMED 1 2.4 05:02:39 10° S 05:07:00 79° WSW 05:07:59 53° NNW
Cosmos 1709 Rocket 4.0 05:01:55 10° SSW 05:08:11 59° WNW 05:14:31 10° N
USA 308 3.0 05:11:14 57° NNW 05:11:42 61° N 05:15:59 10° E
Lacrosse 4 Rocket 3.3 05:14:32 18° SSW 05:14:32 18° SSW 05:16:01 10° S
Cosmos 1833 Rocket 4.2 05:08:13 12° NNW 05:12:38 30° NE 05:17:34 10° ESE
Meteor 2-3 Rocket 3.6 05:09:41 10° SSW 05:15:24 70° WNW 05:21:13 10° N
CZ-4C R/B 2.6 05:11:07 10° SSW 05:16:05 61° SE 05:22:05 10° NE
CZ-4B R/B 3.4 05:12:15 10° NNE 05:16:47 71° ESE 05:21:11 10° S
MOS 1 Rocket 3.9 05:12:39 10° SSE 05:17:27 61° ENE 05:22:34 10° N
FALCON 9 DEB 4.1 05:18:32 33° S 05:19:11 37° SSE 05:22:13 10° E
Meteor 1-10 Rocket 4.5 05:13:43 10° N 05:19:17 69° ENE 05:24:52 10° SSE
Cosmos 1689 Rocket 4.0 05:17:05 10° S 05:18:12 21° S 05:18:12 21° S
ATLAS 3B R/B 2.8 05:17:51 32° WNW 05:21:07 61° SW 05:28:09 10° SSE
COSMOS 2406 4.4 05:18:03 13° NNW 05:22:54 40° NE 05:28:18 10° ESE
Cosmos 1862 4.0 05:24:07 10° S 05:28:05 57° E 05:32:06 10° NNE
Genesis I 3.9 05:25:06 10° SSW 05:28:49 52° SE 05:32:34 10° NE
deb Chang Zheng 4 3.5 05:26:19 10° N 05:30:36 59° WNW 05:34:52 10° SSW
ALOS 2.6 05:26:21 10° N 05:30:43 40° WNW 05:31:45 35° W
Cosmos 990 Rocket 3.9 05:31:04 10° SSW 05:36:19 81° WNW 05:41:37 10° NNE
Cosmos 2074 Rocket 3.9 05:31:53 10° SSW 05:38:05 82° W 05:44:21 10° N
METEOR-M 4.3 05:33:01 10° N 05:38:09 48° WNW 05:43:16 10° SW
Cosmos 2227 Rocket 4.0 05:39:03 14° NNW 05:39:27 14° NNW 05:42:24 10° N
Meteor 1-31 Rocket 3.2 05:36:47 10° N 05:40:23 38° WNW 05:40:29 38° WNW
USA 305 3.0 05:38:55 35° WNW 05:40:35 67° N 05:44:52 10° E
Cosmos 405 Rocket 2.8 05:40:11 10° S 05:43:51 72° E 05:47:38 10° NNE
Cosmos 1812 2.6 05:42:51 16° NNW 05:45:52 69° W 05:49:41 10° S
EO 1 Delta rocket 3.8 05:43:21 10° S 05:48:16 66° W 05:52:52 10° NNW
Cosmos 2228 Rocket 3.0 05:43:57 10° NNW 05:48:22 70° W 05:52:44 10° S
Cosmos 1515 Rocket 4.1 05:46:48 24° NW 05:48:48 36° W 05:52:54 10° SSW
USA 306 3.0 05:47:01 30° WNW 05:49:01 69° N 05:53:19 10° E
CENTAUR R/B 4.4 05:48:50 18° W 05:49:52 19° WSW 05:55:20 10° SW
Cosmos 1782 3.9 05:52:15 25° WSW 05:52:15 25° WSW 05:55:02 10° SW
SL-4 R/B 1.7 05:50:37 31° W 05:52:24 87° N 05:56:05 10° E
NOSS 3-4 (A) 3.6 05:48:19 18° WSW 05:52:47 55° NW 05:59:13 10° NE
NOSS 3-4 (C) 3.6 05:48:24 18° WSW 05:52:54 55° NW 05:59:22 10° NE
DMSP B5D1-3 4.5 05:49:53 10° S 05:55:01 71° WSW 06:00:12 10° NNW
SKYMED 2 4.4 05:51:33 10° SSW 05:55:18 28° W 05:56:36 24° WNW
Cosmos 2184 Rocket 4.0 05:49:22 10° SSW 05:55:40 66° WNW 06:02:02 10° N
SJ-12 4.3 05:53:50 10° N 05:57:37 37° WNW 06:01:21 10° SW
FALCON 9 DEB 3.1 05:56:59 21° WSW 05:58:55 70° SSE 06:02:07 10° ENE
FALCON 9 DEB 3.1 05:59:52 28° WNW 06:01:34 79° NNE 06:05:02 10° E
Cosmos 1844 Rocket 2.6 05:56:14 10° SSW 06:01:54 81° WNW 06:07:38 10° NNE
Cosmos 1707 Rocket 3.8 06:01:03 10° N 06:05:25 72° ENE 06:09:44 10° SSE
EXPRESS MD2 4.2 06:03:37 21° W 06:06:09 57° SSW 06:13:17 10° ESE
Meteor PRIRODA 4.2 06:05:34 10° N 06:09:02 36° WNW 06:12:28 10° SW
ATLAS CENTAUR R/B 2.5 06:08:18 20° W 06:09:30 23° WSW 06:12:37 10° S
COSMOS 2455 3.5 06:04:07 10° SSW 06:10:02 61° ESE 06:15:59 10° NE
RESURS DK-1 2.5 06:06:09 10° SW 06:10:14 53° NW 06:14:21 10° NNE
NOAA 6 4.1 06:05:36 10° NNE 06:10:45 81° ESE 06:15:53 10° SSW
ADEOS 4.5 06:08:07 10° N 06:12:24 26° WNW 06:16:40 10° WSW
ERBS 3.3 06:11:05 21° NW 06:12:35 31° N 06:15:35 10° ENE
ATLAS 2AS CENTAUR R/B 3.1 06:04:53 10° WSW 06:12:45 59° NW 06:20:24 10° NE
EP 3 3.2 06:11:51 22° SW 06:12:55 82° NW 06:14:50 10° NE
H-2A R/B 2.9 06:09:35 10° N 06:13:25 52° WNW 06:17:11 10° SSW
Cosmos 2297 Rocket 4.2 06:12:56 10° NNW 06:14:29 11° N 06:16:01 10° N
Cosmos 1500 Rocket 3.8 06:11:07 10° SSW 06:15:14 43° WNW 06:19:25 10° N
Cosmos 1844 3.6 06:10:15 10° SW 06:15:49 78° WNW 06:21:27 10° NNE
CZ-4B DEB 4.2 06:10:25 10° NNE 06:15:55 90° ESE 06:21:24 10° SSW
Cosmos 1437 Rocket 2.8 06:12:19 10° NNW 06:16:01 50° W 06:19:40 10° S
Lacrosse 5 1.9 06:11:18 12° WSW 06:16:04 67° NNW 06:21:08 10° ENE
Cosmos 372 Rocket 4.1 06:14:18 10° SSW 06:19:23 82° ESE 06:24:31 10° NNE
Okean O Rocket 2.4 06:15:05 10° NNE 06:19:29 58° E 06:23:53 10° S
Uosat 12 SS-18 rocket 4.5 06:16:46 13° NW 06:20:59 81° SW 06:26:42 10° SE
Cosmos 1242 Rocket 3.7 06:17:29 10° N 06:21:00 44° ENE 06:24:31 10° SSE
PAYLOAD B 4.3 06:16:48 10° NNE 06:22:21 85° ESE 06:27:52 10° SSW
SMAP 3.4 06:18:32 10° NNE 06:23:12 72° ESE 06:27:51 10° S
Geosat 4.1 06:18:14 10° SE 06:23:16 83° ENE 06:28:20 10° NNW
SJ 16-02 2.7 06:22:57 14° W 06:25:10 19° NW 06:28:23 10° N
USA 81 4.2 06:20:26 10° S 06:25:41 80° E 06:31:00 10° N
Cosmos 2263 Rocket 3.4 06:24:56 13° WNW 06:28:27 22° NW 06:32:49 10° NNE
FALCON 9 DEB 2.9 06:29:02 10° WSW 06:32:15 87° N 06:35:29 10° ENE
FALCON 9 DEB 2.9 06:29:06 10° WSW 06:32:18 85° NNW 06:35:34 10° ENE
ATLAS 5 CENTAUR R/B 3.4 06:28:35 10° S 06:32:19 35° ESE 06:36:29 10° ENE
Nadezhda 3 Rocket 4.4 06:27:35 10° NNW 06:33:27 42° W 06:39:15 10° SSW
Sich 1 3.0 06:31:28 10° SSW 06:35:52 66° WNW 06:40:19 10° N
Cosmos 1898 Rocket 4.1 06:31:01 10° WSW 06:35:56 36° NW 06:40:52 10° NNE
Cosmos 2218 Rocket 4.5 06:29:57 10° S 06:36:09 67° E 06:42:18 10° NNE
AQUARIUS 4.2 06:32:26 10° NNE 06:36:58 86° ESE 06:41:28 10° SSW
CZ-2C R/B 2.7 06:31:38 10° S 06:37:06 71° WSW 06:42:29 10° NNW
H-2A R/B 2.3 06:33:40 10° N 06:37:28 55° WNW 06:41:12 10° SSW
Envisat 3.1 06:32:32 10° N 06:37:32 58° WNW 06:42:30 10° SSW
Cosmos 1743 Rocket 4.5 06:35:35 10° SW 06:39:25 28° WNW 06:43:17 10° N
Cosmos 2366 rocket 4.4 06:34:14 10° S 06:40:31 70° E 06:46:46 10° NNE
CORIOLIS 4.4 06:36:52 10° NNE 06:42:21 81° ESE 06:47:48 10° SSW
USA 307 3.0 06:41:18 10° WNW 06:45:34 82° SSW 06:49:53 10° ESE
Cosmos 2082 Rocket 2.6 06:41:17 10° NNW 06:47:00 69° ENE 06:52:42 10° SE
CZ-4B R/B 3.2 06:41:52 10° NNE 06:47:14 85° WNW 06:52:41 10° SSW
CZ-4 R/B 3.8 06:46:05 10° NNE 06:49:47 29° E 06:53:29 10° SSE
CZ-4B R/B 4.5 06:48:12 10° NNW 06:51:21 19° WNW 06:54:28 10° WSW
Cosmos 1862 Rocket 3.6 06:47:03 10° NNW 06:51:32 77° W 06:55:56 10° S
USA 308 3.0 06:47:35 10° WNW 06:51:55 77° SSW 06:56:13 10° ESE
Cosmos 1939 Rocket 3.6 06:48:44 10° NNE 06:52:46 62° E 06:56:51 10° S
Cosmos 1937 Rocket 4.1 06:48:10 10° WSW 06:52:53 35° NW 06:57:39 10° NNE
FALCON 9 DEB 2.9 06:51:54 10° W 06:55:08 74° N 06:58:23 10° ENE
NOSS 7 (E) 4.5 06:52:19 10° WSW 06:55:39 48° NW 06:58:38 10° NE
Cosmos 1833 Rocket 2.8 06:51:25 10° NW 06:57:01 66° WSW 07:02:34 10° SSE
Cosmos 1269 Rocket 4.4 06:52:06 10° NNW 06:57:24 70° ENE 07:02:39 10° SSE
Aureole 2 Rocket 3.0 06:55:47 10° WSW 06:57:46 20° NW 06:59:46 10° N
Cosmos 1805 Rocket 4.3 06:54:28 10° SW 06:58:30 33° WNW 07:02:34 10° N
Meteor 1-27 Rocket 4.5 06:55:12 10° NNW 07:00:21 35° W 07:05:33 10° SSW
